Location: Beaver Brook Station
(42.3793°N, 71.2203°W)
Time: 02:10:14
(UTC+00:00)

Cosmos 1825 - Pass Details

Date: 29 October 2020
Orbit: 501 x 508 km, 82.5° (Epoch: 05 December)

Event Time Altitude Azimuth Distance (km) Brightness Sun altitude
Rises 23:30:31 0° 351° (N) 2,623 5.9 -20.7°
Reaches altitude 10° 23:32:39 10° 352° (N) 1,731 4.9 -21.1°
Maximum altitude 23:36:27 89° 268° (W) 512 2.0 -21.8°
Enters shadow 23:36:58 65° 175° (S) 559 2.2 -21.9°
